www.pogodaiklimat.ru

Погода и климат >> Архив погоды >> Финляндия >> Тампере


ПОГОДА в Тампере

  • Прогноз погоды в Тампере
  • Монитор погоды в Тампере

АРХИВ ПОГОДЫ в Тампере

Время (UTC), дата Ветер
(напр.,м/с)
 
Видим.   Явления Облачность Т
(С)
Тd
(С)
f
(%)
Тe
(С)
Тes
(С)
Комфортность P
(гПа)
Po
(гПа)
Тmin
(С)
Tmax
(С)
R
(мм)
R24
(мм)
S
(см)
10 18.06 40 км ясно +22.9 +10.5 45 1012.9 1003.1
11 18.06 35 км ясно +23.5 +10.7 44 1013.0 1003.2
12 18.06 45 км ясно +23.4 +10.0 43 1013.0 1003.2
13 18.06 50 км ясно +23.7 +9.9 42 1013.2 1003.4
14 18.06 50 км ясно +23.4 +9.0 40 1013.4 1003.6
15 18.06 45 км ясно +23.1 +9.3 41 1013.4 1003.5
16 18.06 45 км ясно +22.7 +8.7 41 1013.3 1003.5
17 18.06 50 км ясно +21.8 +9.2 45 1013.2 1003.3
18 18.06 50 км ясно +21.0 +9.1 46 1013.2 1003.3 +19.2 +24.0
19 18.06 50 км ясно +20.4 +9.7 50 1013.1 1003.1
20 18.06 50 км ясно +18.5 +10.2 58 1013.2 1003.1
21 18.06 50 км ясно +17.5 +10.4 63 1013.2 1003.2
22 18.06 50 км ясно +16.9 +10.7 67 1013.4 1003.3
23 18.06 50 км ясно +16.5 +11.4 72 1013.2 1003.1
00 19.06 50 км 6/6
[]
+15.9 +11.7 76 1013.3 1003.2
01 19.06 50 км 1/1
[]
+15.4 +11.5 78 1013.3 1003.2
02 19.06 50 км 10/0
[]
+16.1 +11.6 75 1012.9 1002.8
03 19.06 50 км 10/6 1500 м
[]
+16.5 +11.6 73 1013.1 1003.1
04 19.06 50 км слаб. ливневой дождь 10/10 1500 м
[]
+16.8 +11.6 71 1012.6 1002.6
05 19.06 45 км ясно +18.3 +11.6 65 1012.3 1002.3
06 19.06 45 км 6/6 2000 м
[]
+19.0 +12.1 64 1012.4 1002.4 +15.4 +21.0
07 19.06 13 км ливневой дождь 9/9 2000 м
[]
+18.2 +14.2 77 1012.4 1002.4 0.2
08 19.06 45 км в посл. час дождь 1/0 1000 м
[]
+19.9 +14.6 72 1012.1 1002.2 0.3
09 19.06 35 км 1/1 1000 м
[]
+22.0 +13.8 60 1011.9 1002.0
10 19.06 35 км 4/4 1000 м
[]
+23.8 +13.9 54 1011.5 1001.7
11 19.06 40 км 6/6 1000 м
[]
+23.0 +13.1 54 1011.5 1001.6
12 19.06 35 км 5/5 1000 м
[]
+24.2 +14.1 53 1011.3 1001.5
13 19.06 40 км в посл. час дождь 9/8 1500 м
[]
+20.4 +16.5 78 1011.7 1001.8 0.7
14 19.06 45 км 5/5 1500 м
[]
+22.4 +16.6 70 1011.4 1001.5
15 19.06 40 км 8/3 1000 м
[]
+22.5 +17.3 72 1010.9 1001.0
16 19.06 50 км 8/5 1000 м
[]
+22.6 +16.2 67 1010.9 1001.1
17 19.06 50 км в посл. час дождь 3/1 1500 м
[]
+21.6 +14.9 66 1011.0 1001.1
18 19.06 35 км слаб. ливневой дождь 9/9 1000 м
[]
+19.6 +16.5 82 1011.1 1001.1 +17.3 +24.4 2
19 19.06 8000 м сильн. ливневой дождь 9/9 1000 м
[]
+17.9 +16.7 93 1011.7 1001.7
20 19.06 7000 м дымка ясно +16.5 +16.0 97 1012.1 1002.0
21 19.06 5000 м дымка ясно +15.4 +15.2 99 1012.4 1002.3
22 19.06 2100 м дымка 1/0 2000 м
[]
+14.8 +14.6 99 1012.5 1002.3
23 19.06 4900 м дымка 5/0 2000 м
[]
+13.6 +13.5 99 1012.5 1002.3
00 20.06 5000 м дымка ясно +12.9 +12.8 99 1012.7 1002.5
01 20.06 4700 м дымка 5/0
[]
+12.6 +12.5 99 1012.7 1002.5
02 20.06 7000 м дымка 1/0
[]
+12.3 +12.3 100 1012.8 1002.6
03 20.06 7000 м дымка 1/1
[]
+13.0 +12.9 99 1012.4 1002.2
04 20.06 28 км 1/1
[]
+16.3 +14.8 91 1012.2 1002.1
05 20.06 45 км 9/9 2000 м
[]
+16.7 +14.3 86 1012.3 1002.3
06 20.06 45 км 10/10
[]
+17.5 +14.3 81 1012.1 1002.1 +12.2 +19.6 1
07 20.06 30 км 9/9
[]
+19.5 +14.6 73 1011.9 1001.9
08 20.06 40 км 9/9
[]
+20.9 +14.6 67 1011.7 1001.8
09 20.06 35 км ясно +24.2 +14.8 56 1011.2 1001.4
10 20.06 40 км 5/5 1500 м
[]
+25.3 +13.3 47 1010.7 1001.0
11 20.06 45 км 5/5 1500 м
[]
+25.7 +12.3 43 1010.6 1000.9
12 20.06 45 км 8/8 2000 м
[]
+26.6 +10.9 37 1010.2 1000.5
13 20.06 50 км 4/0
[]
+25.9 +9.8 36 1009.9 1000.2
14 20.06 45 км слаб. дождь 9/9 2000 м
[]
+25.3 +9.9 38 1009.5 999.8
15 20.06 45 км слаб. ливневой дождь 9/9 1500 м
[]
+24.8 +11.7 44 1008.9 999.1
16 20.06 50 км в посл. час дождь 9/9
[]
+25.1 +11.4 42 1008.2 998.4
17 20.06 30 км 9/9 2000 м
[]
+25.8 +11.8 42 1007.9 998.2
18 20.06 50 км 6/6 2000 м
[]
+24.4 +12.6 48 1008.1 998.3 +17.4 +27.1
19 20.06 50 км 4/0
[]
+23.2 +12.3 50 1008.1 998.3
20 20.06 50 км ясно +22.0 +12.6 55 1007.8 998.0
21 20.06 50 км 3/3 2000 м
[]
+21.0 +13.3 61 1007.9 998.0
22 20.06 50 км 1/0
[]
+20.5 +13.4 64 1007.9 998.0
23 20.06 50 км ясно +19.5 +13.3 67 1007.7 997.8
00 21.06 50 км ясно +18.4 +13.7 74 1007.5 997.5
01 21.06 50 км 1/1
[]
+17.9 +14.0 78 1007.5 997.5
02 21.06 50 км ясно +17.5 +14.3 81 1007.6 997.6
03 21.06 50 км ясно +18.1 +14.7 81 1007.1 997.1
04 21.06 45 км ясно +19.0 +14.7 76 1006.8 996.8
05 21.06 45 км 1/0
[]
+20.6 +15.8 74 1006.6 996.7
06 21.06 40 км ясно +21.8 +16.0 70 1006.5 996.6 +17.1 +24.4
07 21.06 40 км 8/8
[]
+21.8 +16.4 71 1006.4 996.6
08 21.06 30 км 8/1 600 м
[]
+22.9 +16.0 65 1006.5 996.7
09 21.06 28 км 6/6 600 м
[]
+24.6 +16.8 62 1006.9 997.1
10 21.06 35 км 3/3 1000 м
[]
+24.8 +16.9 61 1006.8 997.0
11 21.06 30 км в посл. час дождь 3/1 1000 м
[]
+24.5 +15.8 58 1006.7 996.9
12 21.06 40 км в посл. час дождь 6/6 1000 м
[]
+24.5 +16.0 59 1006.8 997.0
13 21.06 50 км 9/9 1000 м
[]
+24.6 +15.2 56 1007.0 997.3
14 21.06 50 км 5/3 1000 м
[]
+24.0 +14.6 56 1007.1 997.3
15 21.06 40 км 4/4 1000 м
[]
+23.7 +13.9 54 1007.3 997.6
16 21.06 50 км ясно +23.2 +12.9 52 1007.4 997.6
17 21.06 50 км ясно +22.4 +12.1 52 1007.5 997.6
18 21.06 50 км ясно +20.7 +10.5 52 1007.8 997.9 +20.7 +25.4 0.2
19 21.06 50 км ясно +19.7 +8.7 49 1008.1 998.2
20 21.06 50 км ясно +18.2 +8.9 55 1008.4 998.4
21 21.06 50 км 4/4 1000 м
[]
+14.8 +10.2 74 1008.9 998.8
22 21.06 50 км 3/3 1000 м
[]
+15.0 +10.2 73 1008.9 998.8
23 21.06 50 км ясно +14.4 +9.8 74 1009.2 999.1
00 22.06 50 км ясно +14.4 +10.3 76 1009.3 999.1
01 22.06 50 км ясно +13.9 +10.1 78 1009.2 999.1
02 22.06 50 км ясно +13.5 +9.7 78 1009.1 998.9
03 22.06 50 км ясно +14.4 +8.7 69 1008.9 998.8
04 22.06 50 км 6/6 1500 м
[]
+15.1 +8.2 63 1009.5 999.4
05 22.06 50 км слаб. дождь 10/0 2000 м
[]
+12.8 +9.9 83 1009.5 999.3 0.1
06 22.06 50 км в посл. час морось 9/4
[]
+14.2 +9.1 71 1009.3 999.2 +12.7 +20.7 0.1
07 22.06 45 км 1/0 600 м
[]
+15.8 +9.4 66 1009.4 999.3
08 22.06 40 км 4/4 1000 м
[]
+16.9 +7.7 55 1009.5 999.5
09 22.06 50 км 9/9 1000 м
[]
+16.2 +7.0 54 1010.3 1000.2
10 22.06 40 км 3/3 1000 м
[]
+17.9 +7.8 52 1010.7 1000.7
11 22.06 30 км 4/0 1000 м
[]
+17.2 +7.9 54 1011.3 1001.3
12 22.06 45 км 9/9 1000 м
[]
+16.4 +7.2 54 1012.4 1002.3
13 22.06 50 км 9/9 1000 м
[]
+14.6 +7.4 62 1013.9 1003.7
14 22.06 23 км 9/9 1000 м
[]
+15.5 +7.1 57 1014.8 1004.6
15 22.06 50 км 8/8 1000 м
[]
+16.4 +6.0 50 1015.2 1005.1
16 22.06 45 км 4/4 1000 м
[]
+16.8 +5.6 48 1015.6 1005.5
17 22.06 50 км 4/4 1000 м
[]
+16.6 +5.9 49 1015.8 1005.7
18 22.06 50 км 1/1 1000 м
[]
+15.9 +5.8 51 1016.4 1006.2 +14.0 +17.9
19 22.06 50 км ясно +15.2 +6.0 54 1016.6 1006.5
20 22.06 50 км ясно +14.3 +5.6 56 1017.1 1006.9
21 22.06 50 км ясно +13.2 +6.0 62 1017.8 1007.5
22 22.06 50 км ясно +12.8 +6.1 64 1018.1 1007.8
23 22.06 50 км ясно +11.6 +6.7 72 1018.6 1008.3
00 23.06 50 км ясно +11.4 +7.2 75 1018.9 1008.6
01 23.06 50 км ясно +11.0 +7.3 78 1019.6 1009.2
02 23.06 50 км ясно +10.3 +7.5 83 1020.1 1009.7
03 23.06 50 км ясно +11.5 +8.3 81 1020.5 1010.2
04 23.06 50 км ясно +13.0 +7.8 71 1020.6 1010.3
05 23.06 45 км ясно +14.4 +6.5 59 1021.1 1010.8
06 23.06 45 км ясно +15.5 +6.0 53 1021.2 1011.0 +10.2 +15.9
07 23.06 45 км ясно +17.1 +6.2 49 1021.2 1011.0
08 23.06 45 км ясно +17.7 +3.8 40 1021.4 1011.3
09 23.06 45 км ясно +18.8 +5.3 41 1021.5 1011.4
10 23.06 50 км ясно +19.3 +3.9 36 1021.5 1011.5
11 23.06 35 км 1/1 2000 м
[]
+20.1 +3.2 33 1021.4 1011.3
12 23.06 50 км 8/8 2000 м
[]
+19.6 +3.3 34 1021.4 1011.3
13 23.06 50 км 9/9
[]
+20.8 +4.4 34 1021.2 1011.1
14 23.06 45 км 1/1
[]
+21.0 +3.4 31 1020.8 1010.8
15 23.06 50 км 6/6
[]
+20.8 +5.4 37 1020.6 1010.6
16 23.06 50 км 6/4 2000 м
[]
+20.2 +4.4 35 1020.5 1010.5
17 23.06 50 км 9/1 2000 м
[]
+19.6 +4.6 37 1020.8 1010.8
18 23.06 50 км 8/0
[]
+18.6 +5.1 41 1020.7 1010.6 +15.5 +21.4
19 23.06 50 км 9/0
[]
+18.4 +5.1 42 1020.8 1010.8
20 23.06 50 км 9/0
[]
+16.9 +5.6 47 1021.1 1010.9
21 23.06 50 км ясно +13.5 +6.7 63 1021.9 1011.6
22 23.06 50 км ясно +11.7 +7.3 74 1022.5 1012.2
23 23.06 50 км ясно +12.8 +6.8 67 1023.1 1012.8
00 24.06 50 км ясно +9.9 +6.7 80 1023.9 1013.4
01 24.06 50 км ясно +9.5 +6.6 82 1024.3 1013.8
02 24.06 50 км ясно +8.3 +6.3 87 1024.9 1014.4
03 24.06 50 км ясно +10.1 +7.5 84 1025.1 1014.7
04 24.06 50 км ясно +13.6 +7.6 67 1025.1 1014.8
05 24.06 50 км ясно +15.3 +8.5 64 1025.4 1015.1
06 24.06 50 км ясно +16.6 +9.2 62 1025.7 1015.5 +8.2 +18.6
07 24.06 50 км ясно +17.6 +9.4 59 1025.9 1015.7
08 24.06 40 км ясно +18.6 +6.4 45 1026.0 1015.9
09 24.06 40 км ясно +19.3 +6.3 43 1026.1 1016.0
10 24.06 45 км 3/3 1500 м
[]
+19.3 +6.0 42 1026.4 1016.2
11 24.06 45 км 8/8 1500 м
[]
+19.2 +4.7 38 1026.7 1016.5
12 24.06 50 км 6/6 1500 м
[]
+18.7 +4.4 39 1027.1 1016.9
13 24.06 45 км 1/0 2000 м
[]
+19.5 +3.7 35 1027.3 1017.2
14 24.06 50 км 3/0 2000 м
[]
+19.8 +4.4 36 1027.3 1017.2
15 24.06 50 км 1/1 1500 м
[]
+19.7 +4.8 37 1027.4 1017.3
16 24.06 50 км ясно +19.8 +6.0 40 1027.5 1017.4
17 24.06 50 км ясно +18.8 +6.1 43 1027.6 1017.4
18 24.06 50 км ясно +17.9 +6.5 47 1027.7 1017.5 +16.6 +20.4
19 24.06 50 км ясно +17.2 +5.9 47 1028.3 1018.1
20 24.06 50 км 3/0
[]
+15.6 +5.8 52 1028.9 1018.6
21 24.06 50 км ясно +13.7 +6.1 60 1029.5 1019.1
22 24.06 50 км ясно +11.4 +6.6 72 1029.9 1019.4
23 24.06 50 км 9/0
[]
+10.0 +6.8 80 1030.1 1019.6
00 25.06 50 км 1/0
[]
+8.6 +6.3 85 1030.2 1019.7
01 25.06 50 км 9/0
[]
+7.8 +6.1 89 1030.3 1019.8
02 25.06 50 км 8/0
[]
+7.3 +6.0 91 1030.3 1019.7
03 25.06 50 км 6/0
[]
+9.9 +7.5 85 1030.3 1019.8
04 25.06 50 км 5/1
[]
+12.8 +7.9 72 1030.3 1019.9
05 25.06 50 км 1/1
[]
+13.1 +8.1 72 1030.5 1020.1
06 25.06 50 км ясно +14.7 +8.1 65 1030.1 1019.8 +7.0 +17.9
07 25.06 35 км ясно +15.6 +6.5 55 1029.6 1019.3
08 25.06 40 км ясно +17.8 +6.8 48 1029.1 1018.9
09 25.06 45 км ясно +19.2 +6.8 44 1028.8 1018.6
10 25.06 45 км ясно +20.2 +6.9 42 1028.3 1018.2

 

Местоположение метеостанции Тампере (Финляндия): широта 61.47 долгота 23.75 высота над уровнем моря 85 м.

В архиве по умолчанию представлена погода в Тампере за последнюю неделю. Архивные данные за месяц целиком и за предыдущие месяцы, начиная с января 2011 года, Вы можете получить, выбрав интересующий диапазон дат из раскрывающегося списка и нажав кнопку "Ввод!".


*Определитесь, кто Вы:
робот инопланетянин человек

Внимание! Время в таблицах - всемирное. Для получения местного времени необходимо прибавить поправку, которая равна 1 ч.

Смотрите также архив погоды в соседних городах и на ближайших метеорологических станциях:

Погода в Тампере (Финляндия) (4 км)
Погода на Острове Сиилинкари (Финляндия) (6 км)
Погода в Аэропорту Пирккала (Финляндия) (9 км)
Погода в Лепаа (Финляндия) (50 км)
Погода в Юупайоки Хююеяля (Финляндия) (51 км)
Погода в Халли (Финляндия) (56 км)
Погода в Хямеэнлинна (Финляндия) (66 км)
Погода в Аэропорту Халли (Финляндия) (70 км)
Погода в Йокиойнене (Финляндия) (75 км)
Погода в Кокемяки (Финляндия) (79 км)

Пояснения к столбцам:

Ветер - указаны скорость ветра в м/с - средняя за 10 мин, порывы в срок и между сроками (в фигурных скобках) и направление, откуда дует ветер: С - северный, СВ - северо-восточный, В - восточный, ЮВ - юго-восточный, Ю - южный, ЮЗ - юго-западный, З - западный, СЗ - северо-западный.
Видимость - горизонтальная дальность видимости в метрах или километрах. При видимости от 1 до 10 км при отсутствии осадков обычно наблюдается дымка, при ухудшении видимости до 1 км и менее - туман. В сухую погоду видимость может ухудшаться дымом, пылью или мглою.
Явления - указаны атмосферные явления, наблюдавшиеся в срок или в последний час перед сроком; фигурными скобками обозначены явления, наблюдавшиеся между сроками (за 1-3 часа до срока); квадратными скобками обозначены град или гололедные отложения с указанием их диаметра в мм.
Облачность - указаны через наклонную черту общая и нижняя облачность в баллах и высота нижней границы облаков в метрах; квадратными скобками обозначены формы облаков: Ci - перистые, Cs - перисто-слоистые, Cc - перисто-кучевые, Ac - высококучевые, As - высокослоистые, Sc - слоисто-кучевые, Ns - слоисто-дождевые, Cu - кучевые, Cb - кучево-дождевые. Подробнее классификацию облаков см. в Атласе облаков (PDF).
T - Температура воздуха - температура, измеренная на высоте 2 м над землей.
Td - Температура точки росы - температура, при понижении до которой содержащийся в воздухе водяной пар достигнет насыщения.
f - Относительная влажность воздуха - влажноcть воздуха, измеренная на высоте 2 м над землей.
Te - Эффективная температура - температура, которую ощущает одетый по сезону человек в тени. Характеристика душности погоды. При расчете учитывается влияние влажности воздуха и скорости ветра на теплоощущения человека.
Tes - Эффективная температура на солнце - температура, которую ощущает человек, с поправкой на солнечный нагрев. Характеристика знойности погоды. Зависит от высоты солнца над горизонтом, облачности и скорости ветра. Ночью, в пасмурную погоду, а также при ветре 12 м/с и более поправка равна нулю.
P - Атмосферное давление - приведенное к уровню моря атмосферное давление.
Po - Атмосферное давление - измеренное на уровне метеостанции атмосферное давление.
Tmin - Минимальная температура - минимум температуры воздуха на высоте 2 м над землей.
Tmax - Максимальная температура - максимум температуры воздуха на высоте 2 м над землей.
R - Количество осадков - Количество выпавших осадков за период времени, мм. При наведении курсора мыши на число - период времени, за который выпало указанное количество осадков.
R24 - Количество осадков - Количество выпавших осадков за 24 часа, мм.
S - Снежный покров - Высота снежного покрова, см. При наведении курсора мыши на число - состояние снежного покрова и степень покрытия местности в баллах.